| time (UTC) | temp F | wind direction | speed knots | gust knots | rain 1hr in | rain 24hr in | rain mn in | humidity % | barometer mb |
| 20260510070101 | 49 | 0 | 0.0 | 0.9 | 0.00 | 0.00 | 0.00 | 65 | 1011.7 |
| 20260510064550 | 47 | 0 | 0.0 | 0.9 | 0.00 | 0.00 | 0.00 | 69 | 1011.4 |
| 20260510063058 | 46 | 0 | 0.0 | 0.0 | 0.00 | 0.00 | 0.00 | 72 | 1011.1 |
| 20260510061555 | 46 | 0 | 0.0 | 0.0 | 0.00 | 0.00 | 0.00 | 74 | 1010.9 |
| 20260510060055 | 47 | 0 | 0.0 | 0.0 | 0.00 | 0.00 | 0.00 | 74 | 1010.7 |
| 20260510054552 | 47 | 0 | 0.0 | 0.0 | 0.00 | 0.00 | 0.00 | 74 | 1010.4 |
| 20260510053052 | 47 | 0 | 0.0 | 0.0 | 0.00 | 0.00 | 0.00 | 73 | 1010.3 |
| 20260510051601 | 48 | 0 | 0.0 | 0.0 | 0.00 | 0.00 | 0.00 | 72 | 1010.1 |
| 20260510050055 | 49 | 0 | 0.0 | 0.0 | 0.00 | 0.00 | 0.00 | 70 | 1010.0 |
| 20260510044555 | 49 | 0 | 0.0 | 0.0 | 0.00 | 0.00 | 0.00 | 68 | 1009.7 |
| 20260510043056 | 50 | 0 | 0.0 | 0.0 | 0.00 | 0.00 | 0.00 | 64 | 1009.5 |
| 20260510041551 | 51 | 0 | 0.0 | 0.0 | 0.00 | 0.00 | 0.00 | 61 | 1009.2 |
| 20260510040100 | 52 | 0 | 0.0 | 0.0 | 0.00 | 0.00 | 0.00 | 58 | 1009.2 |
| 20260510034551 | 53 | 0 | 0.0 | 0.0 | 0.00 | 0.00 | 0.00 | 55 | 1008.8 |
| 20260510033112 | 55 | 0 | 0.0 | 0.0 | 0.00 | 0.00 | 0.00 | 54 | 1008.8 |
| 20260510031559 | 55 | 0 | 0.0 | 0.0 | 0.00 | 0.00 | 0.00 | 52 | 1008.8 |
| 20260510030053 | 55 | 0 | 0.0 | 0.0 | 0.00 | 0.00 | 0.00 | 52 | 1008.7 |
| 20260510024556 | 55 | 0 | 0.0 | 0.0 | 0.00 | 0.00 | 0.00 | 51 | 1008.6 |
| 20260510023051 | 56 | 0 | 0.0 | 0.0 | 0.00 | 0.00 | 0.00 | 49 | 1008.2 |
| 20260510021552 | 56 | 0 | 0.0 | 1.7 | 0.00 | 0.00 | 0.00 | 48 | 1007.9 |
| 20260510020054 | 57 | 69 | 0.0 | 0.9 | 0.00 | 0.00 | 0.00 | 47 | 1007.4 |
| 20260510014558 | 57 | 0 | 0.0 | 0.9 | 0.00 | 0.00 | 0.00 | 46 | 1007.0 |
| 20260510013056 | 58 | 0 | 0.0 | 0.9 | 0.00 | 0.00 | 0.00 | 46 | 1006.5 |
| 20260510011557 | 59 | 0 | 0.0 | 1.7 | 0.00 | 0.00 | 0.00 | 45 | 1006.3 |
| 20260510004559 | 62 | 80 | 0.0 | 2.6 | 0.00 | 0.00 | 0.00 | 41 | 1005.4 |
| 20260510003111 | 68 | 52 | 0.9 | 6.1 | 0.00 | 0.00 | 0.00 | 36 | 1005.0 |
| 20260510001554 | 70 | 288 | 0.9 | 5.2 | 0.00 | 0.00 | 0.00 | 35 | 1004.5 |
| 20260509234604 | 72 | 301 | 1.7 | 7.8 | 0.00 | 0.00 | 0.00 | 33 | 1003.9 |
| 20260509233055 | 73 | 236 | 0.9 | 5.2 | 0.00 | 0.00 | 0.00 | 32 | 1003.6 |
| 20260509231558 | 73 | 318 | 1.7 | 6.1 | 0.00 | 0.00 | 0.00 | 32 | 1003.4 |
| 20260509230105 | 73 | 257 | 1.7 | 7.8 | 0.00 | 0.00 | 0.00 | 30 | 1003.2 |
| 20260509224554 | 73 | 13 | 3.5 | 14.8 | 0.00 | 0.00 | 0.00 | 29 | 1002.9 |
| 20260509223052 | 73 | 258 | 4.3 | 13.9 | 0.00 | 0.00 | 0.00 | 28 | 1002.8 |
| 20260509221552 | 74 | 252 | 1.7 | 8.7 | 0.00 | 0.00 | 0.00 | 28 | 1002.5 |
| 20260509220055 | 74 | 240 | 2.6 | 11.3 | 0.00 | 0.00 | 0.00 | 30 | 1002.4 |
| 20260509214554 | 75 | 52 | 3.5 | 7.8 | 0.00 | 0.00 | 0.00 | 28 | 1002.1 |
| 20260509213103 | 75 | 276 | 2.6 | 11.3 | 0.00 | 0.00 | 0.00 | 29 | 1001.7 |
| 20260509211603 | 75 | 285 | 0.9 | 12.2 | 0.00 | 0.00 | 0.00 | 30 | 1001.7 |
| 20260509204558 | 74 | 312 | 5.2 | 12.2 | 0.00 | 0.00 | 0.00 | 29 | 1001.7 |
| 20260509203056 | 74 | 304 | 3.5 | 11.3 | 0.00 | 0.00 | 0.00 | 29 | 1001.6 |
| 20260509201558 | 73 | 259 | 0.9 | 9.6 | 0.00 | 0.00 | 0.00 | 31 | 1001.7 |
| 20260509194556 | 74 | 302 | 2.6 | 11.3 | 0.00 | 0.00 | 0.00 | 31 | 1002.0 |
| 20260509193052 | 73 | 293 | 5.2 | 16.5 | 0.00 | 0.00 | 0.00 | 30 | 1002.1 |
| 20260509191550 | 73 | 260 | 2.6 | 8.7 | 0.00 | 0.00 | 0.00 | 29 | 1002.2 |
| 20260509190050 | 73 | 254 | 3.5 | 7.0 | 0.00 | 0.00 | 0.00 | 30 | 1001.8 |
| 20260509184551 | 73 | 249 | 1.7 | 7.8 | 0.00 | 0.00 | 0.00 | 34 | 1001.9 |
| 20260509183135 | 72 | 288 | 1.7 | 8.7 | 0.00 | 0.00 | 0.00 | 33 | 1002.0 |
| 20260509181608 | 73 | 269 | 2.6 | 9.6 | 0.00 | 0.00 | 0.00 | 32 | 1002.0 |
| 20260509180052 | 72 | 286 | 1.7 | 7.8 | 0.00 | 0.00 | 0.00 | 32 | 1002.2 |
| 20260509174550 | 72 | 262 | 1.7 | 6.1 | 0.00 | 0.00 | 0.00 | 42 | 1002.2 |
| 20260509173051 | 72 | 257 | 0.0 | 4.3 | 0.00 | 0.00 | 0.00 | 45 | 1002.2 |
| 20260509171600 | 71 | 266 | 0.9 | 5.2 | 0.00 | 0.00 | 0.00 | 48 | 1002.4 |
| 20260509170057 | 70 | 275 | 1.7 | 7.8 | 0.00 | 0.00 | 0.00 | 47 | 1002.4 |
| 20260509164559 | 70 | 0 | 0.0 | 4.3 | 0.00 | 0.00 | 0.00 | 52 | 1002.4 |
| 20260509163057 | 69 | 0 | 0.9 | 3.5 | 0.00 | 0.00 | 0.00 | 54 | 1002.4 |
| 20260509161554 | 68 | 278 | 0.0 | 5.2 | 0.00 | 0.00 | 0.00 | 57 | 1002.3 |
| 20260509160052 | 66 | 298 | 0.0 | 3.5 | 0.00 | 0.00 | 0.00 | 60 | 1002.4 |
| 20260509154556 | 65 | 236 | 0.9 | 4.3 | 0.00 | 0.00 | 0.00 | 65 | 1002.3 |
| 20260509153052 | 64 | 226 | 0.0 | 3.5 | 0.00 | 0.00 | 0.00 | 66 | 1002.3 |
| 20260509151552 | 63 | 263 | 0.0 | 3.5 | 0.00 | 0.00 | 0.00 | 64 | 1002.5 |
| 20260509150054 | 62 | 0 | 0.0 | 3.5 | 0.00 | 0.00 | 0.00 | 67 | 1002.5 |
| 20260509144552 | 61 | 0 | 0.0 | 4.3 | 0.00 | 0.00 | 0.00 | 69 | 1002.6 |
| 20260509143058 | 60 | 307 | 0.0 | 7.0 | 0.00 | 0.00 | 0.00 | 70 | 1002.2 |
| 20260509141606 | 59 | 292 | 0.9 | 5.2 | 0.00 | 0.00 | 0.00 | 71 | 1002.3 |
| 20260509140059 | 58 | 0 | 0.9 | 4.3 | 0.00 | 0.00 | 0.00 | 73 | 1002.2 |
| 20260509134558 | 58 | 0 | 0.9 | 3.5 | 0.00 | 0.00 | 0.00 | 74 | 1002.2 |
| 20260509133050 | 57 | 0 | 0.0 | 3.5 | 0.00 | 0.00 | 0.00 | 76 | 1002.3 |
| 20260509131551 | 56 | 301 | 0.0 | 8.7 | 0.00 | 0.00 | 0.00 | 76 | 1002.3 |
| 20260509130053 | 56 | 255 | 0.0 | 3.5 | 0.00 | 0.00 | 0.00 | 77 | 1002.3 |
| 20260509124551 | 55 | 231 | 0.9 | 3.5 | 0.00 | 0.00 | 0.00 | 79 | 1002.3 |
| 20260509123054 | 54 | 230 | 0.0 | 2.6 | 0.00 | 0.00 | 0.00 | 82 | 1002.2 |
| 20260509121555 | 53 | 188 | 0.0 | 0.9 | 0.00 | 0.00 | 0.00 | 84 | 1002.1 |
| 20260509120054 | 53 | 252 | 0.0 | 3.5 | 0.00 | 0.00 | 0.00 | 86 | 1002.2 |
| 20260509114551 | 52 | 0 | 0.0 | 2.6 | 0.00 | 0.00 | 0.00 | 86 | 1002.1 |
| 20260509113053 | 52 | 0 | 0.0 | 1.7 | 0.00 | 0.00 | 0.00 | 86 | 1002.0 |
| 20260509111552 | 52 | 181 | 0.0 | 2.6 | 0.00 | 0.00 | 0.00 | 86 | 1001.6 |
| 20260509110054 | 52 | 200 | 0.0 | 3.5 | 0.00 | 0.00 | 0.00 | 86 | 1001.6 |
| 20260509104552 | 52 | 0 | 0.0 | 4.3 | 0.00 | 0.00 | 0.00 | 86 | 1001.6 |
| 20260509103056 | 52 | 231 | 0.0 | 2.6 | 0.00 | 0.00 | 0.00 | 86 | 1001.6 |
| 20260509101556 | 52 | 0 | 0.0 | 1.7 | 0.00 | 0.00 | 0.00 | 85 | 1001.8 |
| 20260509100053 | 52 | 0 | 0.9 | 2.6 | 0.00 | 0.00 | 0.00 | 85 | 1001.9 |
| 20260509094552 | 52 | 224 | 0.0 | 1.7 | 0.00 | 0.00 | 0.00 | 85 | 1002.1 |
| 20260509093057 | 52 | 0 | 0.0 | 4.3 | 0.00 | 0.00 | 0.00 | 85 | 1002.2 |
| 20260509091555 | 52 | 0 | 0.0 | 2.6 | 0.00 | 0.00 | 0.00 | 85 | 1002.4 |
| 20260509090055 | 52 | 229 | 0.0 | 0.9 | 0.00 | 0.00 | 0.00 | 84 | 1002.5 |
| 20260509084558 | 53 | 205 | 0.0 | 4.3 | 0.00 | 0.00 | 0.00 | 84 | 1002.5 |
| 20260509083056 | 53 | 0 | 0.0 | 1.7 | 0.00 | 0.00 | 0.00 | 83 | 1002.5 |
| 20260509081556 | 53 | 0 | 0.0 | 1.7 | 0.00 | 0.00 | 0.00 | 83 | 1002.4 |
| 20260509080059 | 53 | 0 | 0.0 | 2.6 | 0.00 | 0.00 | 0.00 | 82 | 1002.3 |
| 20260509074557 | 53 | 0 | 0.0 | 1.7 | 0.00 | 0.00 | 0.00 | 81 | 1002.7 |
| 20260509073052 | 53 | 0 | 0.0 | 3.5 | 0.00 | 0.00 | 0.00 | 81 | 1002.6 |
| 20260509071552 | 54 | 0 | 0.0 | 0.9 | 0.00 | 0.00 | 0.00 | 80 | 1003.0 |